| time (UTC) | temp F | wind direction | speed knots | gust knots | rain 1hr in | rain 24hr in | rain mn in | humidity % | barometer mb |
| 20260505003817 | 69 | 348 | 1.7 | 5.2 | 0.00 | 0.00 | 0.00 | 32 | 1007.4 |
| 20260505002313 | 69 | 349 | 0.0 | 3.5 | 0.00 | 0.00 | 0.00 | 32 | 1007.4 |
| 20260505000811 | 70 | 20 | 1.7 | 6.1 | 0.00 | 0.00 | 0.00 | 32 | 1007.4 |
| 20260504235308 | 70 | 27 | 0.9 | 3.5 | 0.00 | 0.00 | 0.00 | 33 | 1007.1 |
| 20260504233805 | 70 | 6 | 0.9 | 5.2 | 0.00 | 0.00 | 0.00 | 33 | 1007.1 |
| 20260504232300 | 71 | 21 | 2.6 | 9.6 | 0.00 | 0.00 | 0.00 | 32 | 1007.1 |
| 20260504230755 | 74 | 83 | 1.7 | 6.1 | 0.00 | 0.00 | 0.00 | 30 | 1006.6 |
| 20260504225254 | 74 | 103 | 1.7 | 10.4 | 0.00 | 0.00 | 0.00 | 30 | 1006.6 |
| 20260504223751 | 77 | 171 | 1.7 | 7.0 | 0.00 | 0.00 | 0.00 | 28 | 1007.1 |
| 20260504222246 | 76 | 353 | 0.9 | 5.2 | 0.00 | 0.00 | 0.00 | 30 | 1007.1 |
| 20260504220743 | 75 | 197 | 0.0 | 4.3 | 0.00 | 0.00 | 0.00 | 30 | 1007.4 |
| 20260504215239 | 76 | 177 | 1.7 | 11.3 | 0.00 | 0.00 | 0.00 | 30 | 1007.1 |
| 20260504213735 | 77 | 174 | 0.9 | 6.1 | 0.00 | 0.00 | 0.00 | 29 | 1007.4 |
| 20260504212231 | 73 | 107 | 1.7 | 13.0 | 0.00 | 0.00 | 0.00 | 32 | 1007.9 |
| 20260504210728 | 73 | 135 | 1.7 | 6.1 | 0.00 | 0.00 | 0.00 | 31 | 1007.9 |
| 20260504205225 | 77 | 166 | 0.9 | 5.2 | 0.00 | 0.00 | 0.00 | 26 | 1007.9 |
| 20260504203720 | 74 | 145 | 0.9 | 6.1 | 0.00 | 0.00 | 0.00 | 30 | 1007.9 |
| 20260504202220 | 75 | 189 | 0.9 | 4.3 | 0.00 | 0.00 | 0.00 | 30 | 1008.2 |
| 20260504200718 | 75 | 203 | 0.9 | 10.4 | 0.00 | 0.00 | 0.00 | 28 | 1008.2 |
| 20260504195218 | 77 | 134 | 3.5 | 8.7 | 0.00 | 0.00 | 0.00 | 28 | 1007.9 |
| 20260504193714 | 76 | 192 | 1.7 | 5.2 | 0.00 | 0.00 | 0.00 | 29 | 1008.2 |
| 20260504192213 | 71 | 159 | 0.9 | 4.3 | 0.00 | 0.00 | 0.00 | 29 | 1008.5 |
| 20260504190709 | 71 | 8 | 0.0 | 2.6 | 0.00 | 0.00 | 0.00 | 29 | 1009.0 |
| 20260504185205 | 74 | 109 | 0.9 | 6.1 | 0.00 | 0.00 | 0.00 | 26 | 1008.5 |
| 20260504183659 | 73 | 84 | 1.7 | 8.7 | 0.00 | 0.00 | 0.00 | 26 | 1008.5 |
| 20260504182157 | 74 | 55 | 0.9 | 5.2 | 0.00 | 0.00 | 0.00 | 27 | 1008.5 |
| 20260504180657 | 73 | 93 | 0.9 | 7.8 | 0.00 | 0.00 | 0.00 | 28 | 1009.0 |
| 20260504175154 | 73 | 143 | 0.9 | 7.0 | 0.00 | 0.00 | 0.00 | 28 | 1009.0 |
| 20260504173652 | 72 | 114 | 0.0 | 4.3 | 0.00 | 0.00 | 0.00 | 28 | 1009.0 |
| 20260504172148 | 71 | 187 | 0.0 | 4.3 | 0.00 | 0.00 | 0.00 | 29 | 1009.0 |
| 20260504170644 | 70 | 349 | 0.9 | 3.5 | 0.00 | 0.00 | 0.00 | 31 | 1009.0 |
| 20260504150624 | 62 | 346 | 1.7 | 4.3 | 0.00 | 0.00 | 0.00 | 37 | 1010.1 |
| 20260504140609 | 61 | 346 | 1.7 | 4.3 | 0.00 | 0.00 | 0.00 | 38 | 1010.1 |
| 20260504130556 | 57 | 346 | 0.0 | 0.9 | 0.00 | 0.00 | 0.00 | 41 | 1009.7 |
| 20260504110531 | 60 | 341 | 1.7 | 5.2 | 0.00 | 0.00 | 0.00 | 39 | 1009.7 |
| 20260504100528 | 61 | 12 | 3.5 | 7.0 | 0.00 | 0.00 | 0.00 | 38 | 1010.1 |
| 20260504080504 | 59 | 355 | 0.0 | 0.0 | 0.00 | 0.00 | 0.00 | 44 | 1010.5 |
| 20260504050426 | 64 | 355 | 0.0 | 0.9 | 0.00 | 0.00 | 0.00 | 36 | 1010.5 |
| 20260504044921 | 64 | 355 | 1.7 | 3.5 | 0.00 | 0.00 | 0.00 | 35 | 1010.5 |
| 20260504043419 | 64 | 355 | 1.7 | 4.3 | 0.00 | 0.00 | 0.00 | 35 | 1010.5 |
| 20260504041915 | 65 | 355 | 1.7 | 4.3 | 0.00 | 0.00 | 0.00 | 35 | 1010.5 |
| 20260504040412 | 66 | 7 | 2.6 | 5.2 | 0.00 | 0.00 | 0.00 | 34 | 1010.1 |
| 20260504034907 | 64 | 8 | 1.7 | 3.5 | 0.00 | 0.00 | 0.00 | 36 | 1010.1 |
| 20260504033406 | 65 | 8 | 0.0 | 1.7 | 0.00 | 0.00 | 0.00 | 38 | 1010.1 |
| 20260504031901 | 66 | 8 | 0.0 | 1.7 | 0.00 | 0.00 | 0.00 | 38 | 1009.7 |
| 20260504030358 | 67 | 8 | 0.0 | 1.7 | 0.00 | 0.00 | 0.00 | 35 | 1009.7 |
| 20260504024854 | 67 | 8 | 0.9 | 3.5 | 0.00 | 0.00 | 0.00 | 35 | 1009.7 |
| 20260504023350 | 68 | 8 | 0.9 | 3.5 | 0.00 | 0.00 | 0.00 | 35 | 1009.7 |
| 20260504021850 | 68 | 8 | 0.9 | 3.5 | 0.00 | 0.00 | 0.00 | 35 | 1009.7 |
| 20260504020347 | 69 | 8 | 0.0 | 2.6 | 0.00 | 0.00 | 0.00 | 34 | 1009.7 |
| 20260504014847 | 70 | 8 | 0.0 | 1.7 | 0.00 | 0.00 | 0.00 | 33 | 1009.7 |
| 20260504013344 | 71 | 8 | 0.9 | 3.5 | 0.00 | 0.00 | 0.00 | 31 | 1009.7 |
| 20260504011842 | 72 | 8 | 0.0 | 0.9 | 0.00 | 0.00 | 0.00 | 30 | 1009.3 |
| 20260504010342 | 73 | 341 | 0.0 | 5.2 | 0.00 | 0.00 | 0.00 | 25 | 1009.3 |
| 20260504004839 | 73 | 197 | 0.9 | 6.1 | 0.00 | 0.00 | 0.00 | 25 | 1009.3 |